START_TIME,STEP,MOV.,EG07,t_acc.,EG08,t_acc.,EG09,t_acc.,EB05,t_acc.,EBP05,t_acc.
1979-07-27 09:00:22.100 ,0,0,1.,1.2,1.,1.2,0.,1.2,,0.0,,0.0
1979-07-27 09:00:23.300 ,0,0,0.,1.2,0.,1.2,0.,1.2,,0.0,,0.0
1979-07-27 09:00:24.500 ,0,0,0.,1.2,0.,1.2,0.,1.2,,0.0,,0.0
1979-07-27 09:00:25.700 ,0,0,1.,1.2,0.,1.2,0.,1.2,,0.0,,0.0
1979-07-27 09:00:26.900 ,0,0,1.,1.2,0.,1.2,0.,1.2,,0.0,,0.0
1979-07-27 09:00:28.100 ,0,0,0.,1.2,0.,1.2,0.,1.2,,0.0,,0.0
1979-07-27 09:00:29.300 ,0,0,2.,1.2,0.,1.2,0.,1.2,,0.0,,0.0
1979-07-27 09:00:30.500 ,0,0,0.,1.2,0.,1.2,0.,1.2,,0.0,,0.0
1979-07-27 09:00:31.700 ,0,0,0.,1.2,0.,1.2,0.,1.2,,0.0,,0.0
1979-07-27 09:00:32.900 ,0,0,0.,1.2,0.,1.2,0.,1.2,,0.0,,0.0
1979-07-27 09:00:34.100 ,0,0,0.,1.2,0.,1.2,0.,1.2,,0.0,,0.0
1979-07-27 09:00:35.300 ,0,0,1.,1.2,0.,1.2,0.,1.2,,0.0,,0.0
1979-07-27 09:00:36.500 ,0,0,3.,1.2,0.,1.2,0.,1.2,,0.0,,0.0
1979-07-27 09:00:37.700 ,0,0,2.,1.2,0.,1.2,0.,1.2,,0.0,,0.0
1979-07-27 09:00:38.900 ,0,0,1.,1.2,0.,1.2,0.,1.2,,0.0,,0.0
1979-07-27 09:00:40.100 ,0,0,0.,1.2,0.,1.2,0.,1.2,,0.0,,0.0
1979-07-27 09:00:41.300 ,0,0,0.,1.2,0.,1.2,0.,1.2,,0.0,,0.0
1979-07-27 09:00:42.500 ,0,0,0.,1.2,0.,1.2,0.,1.2,,0.0,,0.0
1979-07-27 09:00:43.700 ,0,0,2.,1.2,0.,1.2,0.,1.2,,0.0,,0.0
1979-07-27 09:00:44.900 ,0,0,2.,1.2,1.,1.2,0.,1.2,,0.0,,0.0
1979-07-27 09:00:46.100 ,0,0,0.,1.2,0.,1.2,0.,1.2,,0.0,,0.0
1979-07-27 09:00:47.300 ,0,0,0.,1.2,0.,1.2,0.,1.2,,0.0,,0.0
1979-07-27 09:00:48.500 ,0,0,1.,1.2,0.,1.2,0.,1.2,,0.0,,0.0
1979-07-27 09:00:49.700 ,0,0,1.,1.2,0.,1.2,0.,1.2,,0.0,,0.0
1979-07-27 09:00:50.900 ,0,0,0.,1.2,0.,1.2,0.,1.2,,0.0,,0.0
1979-07-27 09:00:52.100 ,0,0,1.,1.2,0.,1.2,0.,1.2,,0.0,,0.0
1979-07-27 09:00:53.300 ,0,0,0.,1.2,0.,1.2,0.,1.2,,0.0,,0.0
1979-07-27 09:00:54.500 ,0,0,1.,1.2,0.,1.2,0.,1.2,,0.0,,0.0
1979-07-27 09:00:55.700 ,0,0,2.,1.2,0.,1.2,0.,1.2,,0.0,,0.0
1979-07-27 09:00:56.900 ,0,0,2.,1.2,0.,1.2,0.,1.2,,0.0,,0.0
1979-07-27 09:00:58.100 ,0,0,1.,1.2,0.,1.2,0.,1.2,,0.0,,0.0
1979-07-27 09:00:59.300 ,0,0,0.,1.2,0.,1.2,0.,1.2,,0.0,,0.0
1979-07-27 09:01:00.500 ,0,0,0.,1.2,0.,1.2,0.,1.2,,0.0,,0.0
1979-07-27 09:01:01.700 ,0,0,1.,1.2,0.,1.2,0.,1.2,,0.0,,0.0
1979-07-27 09:01:02.900 ,0,0,1.,1.2,0.,1.2,0.,1.2,,0.0,,0.0
1979-07-27 09:01:04.100 ,0,0,1.,1.2,0.,1.2,0.,1.2,,0.0,,0.0
1979-07-27 09:01:05.300 ,0,0,0.,1.2,0.,1.2,0.,1.2,,0.0,,0.0
1979-07-27 09:01:06.500 ,0,0,0.,1.2,0.,1.2,0.,1.2,,0.0,,0.0
1979-07-27 09:01:07.700 ,0,0,3.,1.2,1.,1.2,0.,1.2,,0.0,,0.0
1979-07-27 09:01:08.900 ,0,0,2.,1.2,0.,1.2,0.,1.2,,0.0,,0.0
1979-07-27 09:01:10.100 ,0,0,0.,1.2,0.,1.2,0.,1.2,,0.0,,0.0
1979-07-27 09:01:11.300 ,0,0,1.,1.2,0.,1.2,0.,1.2,,0.0,,0.0
1979-07-27 09:01:12.500 ,0,0,0.,1.2,0.,1.2,0.,1.2,,0.0,,0.0
1979-07-27 09:01:13.700 ,0,0,0.,1.2,0.,1.2,0.,1.2,,0.0,,0.0
1979-07-27 09:01:14.900 ,0,0,2.,1.2,0.,1.2,0.,1.2,,0.0,,0.0
1979-07-27 09:01:16.100 ,0,0,0.,1.2,0.,1.2,0.,1.2,,0.0,,0.0
1979-07-27 09:01:17.300 ,0,0,2.,1.2,0.,1.2,0.,1.2,,0.0,,0.0
1979-07-27 09:01:18.500 ,0,0,1.,1.2,0.,1.2,0.,1.2,,0.0,,0.0
1979-07-27 09:01:19.700 ,0,0,1.,1.2,0.,1.2,0.,1.2,,0.0,,0.0
1979-07-27 09:01:20.900 ,0,0,2.,1.2,1.,1.2,0.,1.2,,0.0,,0.0
1979-07-27 09:01:22.100 ,0,0,0.,1.2,0.,1.2,0.,1.2,,0.0,,0.0
1979-07-27 09:01:23.300 ,0,0,0.,1.2,0.,1.2,0.,1.2,,0.0,,0.0
1979-07-27 09:01:24.500 ,0,0,0.,1.2,0.,1.2,0.,1.2,,0.0,,0.0
1979-07-27 09:01:25.700 ,0,0,0.,1.2,0.,1.2,0.,1.2,,0.0,,0.0
1979-07-27 09:01:26.900 ,0,0,1.,1.2,0.,1.2,0.,1.2,,0.0,,0.0
1979-07-27 09:01:28.100 ,0,0,0.,1.2,0.,1.2,0.,1.2,,0.0,,0.0
1979-07-27 09:01:29.300 ,0,0,0.,1.2,0.,1.2,0.,1.2,,0.0,,0.0
1979-07-27 09:01:30.500 ,0,0,0.,1.2,0.,1.2,0.,1.2,,0.0,,0.0
1979-07-27 09:01:31.700 ,0,0,1.,1.2,0.,1.2,0.,1.2,,0.0,,0.0
1979-07-27 09:01:32.900 ,0,0,3.,1.2,0.,1.2,0.,1.2,,0.0,,0.0
1979-07-27 09:01:34.100 ,1,0,3.,1.2,0.,1.2,0.,1.2,,0.0,,0.0
1979-07-27 09:01:35.300 ,1,0,0.,1.2,0.,1.2,0.,1.2,,0.0,,0.0
1979-07-27 09:01:36.500 ,1,0,0.,1.2,0.,1.2,0.,1.2,,0.0,,0.0
1979-07-27 09:01:37.700 ,1,0,1.,1.2,0.,1.2,0.,1.2,,0.0,,0.0
1979-07-27 09:01:38.900 ,1,0,2.,1.2,1.,1.2,1.,1.2,,0.0,,0.0
1979-07-27 09:01:40.100 ,1,0,0.,1.2,0.,1.2,0.,1.2,,0.0,,0.0
1979-07-27 09:01:41.300 ,1,0,2.,1.2,1.,1.2,1.,1.2,,0.0,,0.0
1979-07-27 09:01:42.500 ,1,0,0.,1.2,0.,1.2,0.,1.2,,0.0,,0.0
1979-07-27 09:01:43.700 ,1,0,0.,1.2,0.,1.2,0.,1.2,,0.0,,0.0
1979-07-27 09:01:44.900 ,1,0,2.,1.2,0.,1.2,0.,1.2,,0.0,,0.0
1979-07-27 09:01:46.100 ,1,0,1.,1.2,0.,1.2,0.,1.2,,0.0,,0.0
1979-07-27 09:01:47.300 ,1,0,0.,1.2,0.,1.2,0.,1.2,,0.0,,0.0
1979-07-27 09:01:48.500 ,1,0,1.,1.2,0.,1.2,0.,1.2,,0.0,,0.0
1979-07-27 09:01:49.700 ,1,0,1.,1.2,0.,1.2,0.,1.2,,0.0,,0.0
1979-07-27 09:01:50.900 ,1,0,2.,1.2,1.,1.2,0.,1.2,,0.0,,0.0
1979-07-27 09:01:52.100 ,1,0,0.,1.2,0.,1.2,0.,1.2,,0.0,,0.0
1979-07-27 09:01:53.300 ,1,0,1.,1.2,1.,1.2,0.,1.2,,0.0,,0.0
1979-07-27 09:01:54.500 ,1,0,0.,1.2,0.,1.2,0.,1.2,,0.0,,0.0
1979-07-27 09:01:55.700 ,1,0,1.,1.2,0.,1.2,0.,1.2,,0.0,,0.0
1979-07-27 09:01:56.900 ,1,0,1.,1.2,0.,1.2,0.,1.2,,0.0,,0.0
1979-07-27 09:01:58.100 ,1,0,1.,1.2,1.,1.2,1.,1.2,,0.0,,0.0
1979-07-27 09:01:59.300 ,1,0,2.,1.2,0.,1.2,0.,1.2,,0.0,,0.0
1979-07-27 09:02:00.500 ,1,0,0.,1.2,0.,1.2,0.,1.2,,0.0,,0.0
1979-07-27 09:02:01.700 ,1,0,1.,1.2,0.,1.2,0.,1.2,,0.0,,0.0
1979-07-27 09:02:02.900 ,1,0,1.,1.2,0.,1.2,0.,1.2,,0.0,,0.0
1979-07-27 09:02:04.100 ,1,0,1.,1.2,0.,1.2,0.,1.2,,0.0,,0.0
1979-07-27 09:02:05.300 ,1,0,0.,1.2,0.,1.2,0.,1.2,,0.0,,0.0
1979-07-27 09:02:06.500 ,1,0,1.,1.2,0.,1.2,0.,1.2,,0.0,,0.0
1979-07-27 09:02:07.700 ,1,0,1.,1.2,0.,1.2,0.,1.2,,0.0,,0.0
1979-07-27 09:02:08.900 ,1,0,1.,1.2,0.,1.2,0.,1.2,,0.0,,0.0
1979-07-27 09:02:10.100 ,1,0,0.,1.2,0.,1.2,0.,1.2,,0.0,,0.0
1979-07-27 09:02:11.300 ,1,0,1.,1.2,0.,1.2,0.,1.2,,0.0,,0.0
1979-07-27 09:02:12.500 ,1,0,0.,1.2,0.,1.2,0.,1.2,,0.0,,0.0
1979-07-27 09:02:13.700 ,1,0,0.,1.2,0.,1.2,0.,1.2,,0.0,,0.0
1979-07-27 09:02:14.900 ,1,0,1.,1.2,0.,1.2,0.,1.2,,0.0,,0.0
1979-07-27 09:02:16.100 ,1,0,1.,1.2,0.,1.2,0.,1.2,,0.0,,0.0
1979-07-27 09:02:17.300 ,1,0,1.,1.2,0.,1.2,0.,1.2,,0.0,,0.0
1979-07-27 09:02:18.500 ,1,0,1.,1.2,0.,1.2,0.,1.2,,0.0,,0.0
1979-07-27 09:02:19.700 ,1,0,0.,1.2,0.,1.2,0.,1.2,,0.0,,0.0
1979-07-27 09:02:20.900 ,1,0,1.,1.2,1.,1.2,0.,1.2,,0.0,,0.0
1979-07-27 09:02:22.100 ,2,0,1.,1.2,0.,1.2,0.,1.2,,0.0,,0.0
1979-07-27 09:02:23.300 ,2,0,2.,1.2,0.,1.2,0.,1.2,,0.0,,0.0
1979-07-27 09:02:24.500 ,2,0,1.,1.2,0.,1.2,0.,1.2,,0.0,,0.0
1979-07-27 09:02:25.700 ,2,0,3.,1.2,0.,1.2,0.,1.2,,0.0,,0.0
1979-07-27 09:02:26.900 ,2,0,0.,1.2,0.,1.2,0.,1.2,,0.0,,0.0
1979-07-27 09:02:28.100 ,2,0,0.,1.2,0.,1.2,0.,1.2,,0.0,,0.0
1979-07-27 09:02:29.300 ,2,0,2.,1.2,1.,1.2,0.,1.2,,0.0,,0.0
1979-07-27 09:02:30.500 ,2,0,1.,1.2,0.,1.2,0.,1.2,,0.0,,0.0
1979-07-27 09:02:31.700 ,2,0,1.,1.2,0.,1.2,0.,1.2,,0.0,,0.0
1979-07-27 09:02:32.900 ,2,0,0.,1.2,0.,1.2,0.,1.2,,0.0,,0.0
1979-07-27 09:02:34.100 ,2,0,2.,1.2,0.,1.2,0.,1.2,,0.0,,0.0
1979-07-27 09:02:35.300 ,2,0,2.,1.2,0.,1.2,0.,1.2,,0.0,,0.0
1979-07-27 09:02:36.500 ,2,0,1.,1.2,0.,1.2,0.,1.2,,0.0,,0.0
1979-07-27 09:02:37.700 ,2,0,2.,1.2,0.,1.2,0.,1.2,,0.0,,0.0
1979-07-27 09:02:38.900 ,2,0,0.,1.2,0.,1.2,0.,1.2,,0.0,,0.0
1979-07-27 09:02:40.100 ,2,0,1.,1.2,0.,1.2,0.,1.2,,0.0,,0.0
1979-07-27 09:02:41.300 ,2,0,1.,1.2,0.,1.2,0.,1.2,,0.0,,0.0
1979-07-27 09:02:42.500 ,2,0,2.,1.2,0.,1.2,0.,1.2,,0.0,,0.0
1979-07-27 09:02:43.700 ,2,0,2.,1.2,0.,1.2,0.,1.2,,0.0,,0.0
1979-07-27 09:02:44.900 ,2,0,2.,1.2,0.,1.2,0.,1.2,,0.0,,0.0
1979-07-27 09:02:46.100 ,2,0,2.,1.2,0.,1.2,0.,1.2,,0.0,,0.0
1979-07-27 09:02:47.300 ,2,0,0.,1.2,0.,1.2,0.,1.2,,0.0,,0.0
1979-07-27 09:02:48.500 ,2,0,0.,1.2,0.,1.2,0.,1.2,,0.0,,0.0
1979-07-27 09:02:49.700 ,2,0,0.,1.2,0.,1.2,0.,1.2,,0.0,,0.0
1979-07-27 09:02:50.900 ,2,0,3.,1.2,0.,1.2,0.,1.2,,0.0,,0.0
1979-07-27 09:02:52.100 ,2,0,0.,1.2,0.,1.2,0.,1.2,,0.0,,0.0
1979-07-27 09:02:53.300 ,2,0,0.,1.2,0.,1.2,0.,1.2,,0.0,,0.0
1979-07-27 09:02:54.500 ,2,0,0.,1.2,0.,1.2,0.,1.2,,0.0,,0.0
1979-07-27 09:02:55.700 ,2,0,1.,1.2,0.,1.2,0.,1.2,,0.0,,0.0
1979-07-27 09:02:56.900 ,2,0,2.,1.2,0.,1.2,0.,1.2,,0.0,,0.0
1979-07-27 09:02:58.100 ,2,0,0.,1.2,0.,1.2,0.,1.2,,0.0,,0.0
1979-07-27 09:02:59.300 ,2,0,2.,1.2,0.,1.2,0.,1.2,,0.0,,0.0
1979-07-27 09:03:00.500 ,2,0,0.,1.2,0.,1.2,0.,1.2,,0.0,,0.0
1979-07-27 09:03:01.700 ,2,0,2.,1.2,0.,1.2,0.,1.2,,0.0,,0.0
1979-07-27 09:03:02.900 ,2,0,1.,1.2,0.,1.2,0.,1.2,,0.0,,0.0
1979-07-27 09:03:04.100 ,2,0,1.,1.2,0.,1.2,0.,1.2,,0.0,,0.0
1979-07-27 09:03:05.300 ,2,0,1.,1.2,0.,1.2,0.,1.2,,0.0,,0.0
1979-07-27 09:03:06.500 ,2,0,0.,1.2,0.,1.2,0.,1.2,,0.0,,0.0
1979-07-27 09:03:07.700 ,2,0,1.,1.2,0.,1.2,0.,1.2,,0.0,,0.0
1979-07-27 09:03:08.900 ,2,0,0.,1.2,0.,1.2,0.,1.2,,0.0,,0.0
1979-07-27 09:03:10.100 ,3,0,1.,1.2,0.,1.2,0.,1.2,,0.0,,0.0
1979-07-27 09:03:11.300 ,3,0,0.,1.2,0.,1.2,0.,1.2,,0.0,,0.0
1979-07-27 09:03:12.500 ,3,0,0.,1.2,0.,1.2,0.,1.2,,0.0,,0.0
1979-07-27 09:03:13.700 ,3,0,0.,1.2,0.,1.2,0.,1.2,,0.0,,0.0
1979-07-27 09:03:14.900 ,3,0,0.,1.2,0.,1.2,0.,1.2,,0.0,,0.0
1979-07-27 09:03:16.100 ,3,0,0.,1.2,0.,1.2,0.,1.2,,0.0,,0.0
1979-07-27 09:03:17.300 ,3,0,2.,1.2,0.,1.2,0.,1.2,,0.0,,0.0
1979-07-27 09:03:18.500 ,3,0,2.,1.2,0.,1.2,0.,1.2,,0.0,,0.0
1979-07-27 09:03:19.700 ,3,0,0.,1.2,0.,1.2,0.,1.2,,0.0,,0.0
1979-07-27 09:03:20.900 ,3,0,0.,1.2,0.,1.2,0.,1.2,,0.0,,0.0
1979-07-27 09:03:22.100 ,3,0,0.,1.2,0.,1.2,0.,1.2,,0.0,,0.0
1979-07-27 09:03:23.300 ,3,0,1.,1.2,0.,1.2,0.,1.2,,0.0,,0.0
1979-07-27 09:03:24.500 ,3,0,0.,1.2,0.,1.2,0.,1.2,,0.0,,0.0
1979-07-27 09:03:25.700 ,3,0,1.,1.2,0.,1.2,0.,1.2,,0.0,,0.0
1979-07-27 09:03:26.900 ,3,0,1.,1.2,0.,1.2,0.,1.2,,0.0,,0.0
1979-07-27 09:03:28.100 ,3,0,2.,1.2,0.,1.2,0.,1.2,,0.0,,0.0
1979-07-27 09:03:29.300 ,3,0,0.,1.2,0.,1.2,0.,1.2,,0.0,,0.0
1979-07-27 09:03:30.500 ,3,0,1.,1.2,0.,1.2,0.,1.2,,0.0,,0.0
1979-07-27 09:03:31.700 ,3,0,0.,1.2,0.,1.2,0.,1.2,,0.0,,0.0
1979-07-27 09:03:32.900 ,3,0,1.,1.2,0.,1.2,0.,1.2,,0.0,,0.0
1979-07-27 09:03:34.100 ,3,0,2.,1.2,0.,1.2,0.,1.2,,0.0,,0.0
1979-07-27 09:03:35.300 ,3,0,0.,1.2,0.,1.2,0.,1.2,,0.0,,0.0
1979-07-27 09:03:36.500 ,3,0,1.,1.2,0.,1.2,0.,1.2,,0.0,,0.0
1979-07-27 09:03:37.700 ,3,0,2.,1.2,0.,1.2,0.,1.2,,0.0,,0.0
1979-07-27 09:03:38.900 ,3,0,0.,1.2,0.,1.2,0.,1.2,,0.0,,0.0
1979-07-27 09:03:40.100 ,3,0,1.,1.2,0.,1.2,0.,1.2,,0.0,,0.0
1979-07-27 09:03:41.300 ,3,0,1.,1.2,0.,1.2,0.,1.2,,0.0,,0.0
1979-07-27 09:03:42.500 ,3,0,0.,1.2,0.,1.2,0.,1.2,,0.0,,0.0
1979-07-27 09:03:43.700 ,3,0,0.,1.2,0.,1.2,0.,1.2,,0.0,,0.0
1979-07-27 09:03:44.900 ,3,0,1.,1.2,0.,1.2,0.,1.2,,0.0,,0.0
1979-07-27 09:03:46.100 ,3,0,2.,1.2,0.,1.2,0.,1.2,,0.0,,0.0
1979-07-27 09:03:47.300 ,3,0,0.,1.2,0.,1.2,0.,1.2,,0.0,,0.0
1979-07-27 09:03:48.500 ,3,0,0.,1.2,0.,1.2,0.,1.2,,0.0,,0.0
1979-07-27 09:03:49.700 ,3,0,3.,1.2,0.,1.2,0.,1.2,,0.0,,0.0
1979-07-27 09:03:50.900 ,3,0,0.,1.2,0.,1.2,0.,1.2,,0.0,,0.0
1979-07-27 09:03:52.100 ,3,0,0.,1.2,0.,1.2,0.,1.2,,0.0,,0.0
1979-07-27 09:03:53.300 ,3,0,1.,1.2,1.,1.2,0.,1.2,,0.0,,0.0
1979-07-27 09:03:54.500 ,3,0,2.,1.2,0.,1.2,0.,1.2,,0.0,,0.0
1979-07-27 09:03:55.700 ,3,0,1.,1.2,0.,1.2,0.,1.2,,0.0,,0.0
1979-07-27 09:03:56.900 ,3,0,1.,1.2,1.,1.2,0.,1.2,,0.0,,0.0
1979-07-27 09:03:58.100 ,4,0,0.,1.2,0.,1.2,0.,1.2,,0.0,,0.0
1979-07-27 09:03:59.300 ,4,0,3.,1.2,0.,1.2,0.,1.2,,0.0,,0.0
1979-07-27 09:04:00.500 ,4,0,1.,1.2,0.,1.2,0.,1.2,,0.0,,0.0
1979-07-27 09:04:01.700 ,4,0,0.,1.2,0.,1.2,0.,1.2,,0.0,,0.0
1979-07-27 09:04:02.900 ,4,0,1.,1.2,0.,1.2,0.,1.2,,0.0,,0.0
1979-07-27 09:04:04.100 ,4,0,0.,1.2,0.,1.2,0.,1.2,,0.0,,0.0
1979-07-27 09:04:05.300 ,4,0,3.,1.2,0.,1.2,0.,1.2,,0.0,,0.0
1979-07-27 09:04:06.500 ,4,0,1.,1.2,0.,1.2,0.,1.2,,0.0,,0.0
1979-07-27 09:04:07.700 ,4,0,0.,1.2,0.,1.2,0.,1.2,,0.0,,0.0
1979-07-27 09:04:08.900 ,4,0,1.,1.2,0.,1.2,0.,1.2,,0.0,,0.0
1979-07-27 09:04:10.100 ,4,0,1.,1.2,0.,1.2,0.,1.2,,0.0,,0.0
1979-07-27 09:04:11.300 ,4,0,3.,1.2,0.,1.2,0.,1.2,,0.0,,0.0
1979-07-27 09:04:12.500 ,4,0,3.,1.2,1.,1.2,0.,1.2,,0.0,,0.0
1979-07-27 09:04:13.700 ,4,0,0.,1.2,0.,1.2,0.,1.2,,0.0,,0.0
1979-07-27 09:04:14.900 ,4,0,1.,1.2,0.,1.2,0.,1.2,,0.0,,0.0
1979-07-27 09:04:16.100 ,4,0,0.,1.2,0.,1.2,0.,1.2,,0.0,,0.0
1979-07-27 09:04:17.300 ,4,0,0.,1.2,0.,1.2,0.,1.2,,0.0,,0.0
1979-07-27 09:04:18.500 ,4,0,0.,1.2,0.,1.2,0.,1.2,,0.0,,0.0
1979-07-27 09:04:19.700 ,4,0,1.,1.2,0.,1.2,0.,1.2,,0.0,,0.0
1979-07-27 09:04:20.900 ,4,0,2.,1.2,0.,1.2,0.,1.2,,0.0,,0.0
1979-07-27 09:04:22.100 ,4,0,0.,1.2,0.,1.2,0.,1.2,,0.0,,0.0
1979-07-27 09:04:23.300 ,4,0,1.,1.2,1.,1.2,0.,1.2,,0.0,,0.0
1979-07-27 09:04:24.500 ,4,0,3.,1.2,0.,1.2,0.,1.2,,0.0,,0.0
1979-07-27 09:04:25.700 ,4,0,2.,1.2,0.,1.2,0.,1.2,,0.0,,0.0
1979-07-27 09:04:26.900 ,4,0,0.,1.2,0.,1.2,0.,1.2,,0.0,,0.0
1979-07-27 09:04:28.100 ,4,0,2.,1.2,1.,1.2,0.,1.2,,0.0,,0.0
1979-07-27 09:04:29.300 ,4,0,0.,1.2,0.,1.2,0.,1.2,,0.0,,0.0
1979-07-27 09:04:30.500 ,4,0,1.,1.2,0.,1.2,0.,1.2,,0.0,,0.0
1979-07-27 09:04:31.700 ,4,0,1.,1.2,0.,1.2,0.,1.2,,0.0,,0.0
1979-07-27 09:04:32.900 ,4,0,0.,1.2,0.,1.2,0.,1.2,,0.0,,0.0
1979-07-27 09:04:34.100 ,4,0,0.,1.2,0.,1.2,0.,1.2,,0.0,,0.0
1979-07-27 09:04:35.300 ,4,0,0.,1.2,0.,1.2,0.,1.2,,0.0,,0.0
1979-07-27 09:04:36.500 ,4,0,0.,1.2,0.,1.2,0.,1.2,,0.0,,0.0
1979-07-27 09:04:37.700 ,4,0,1.,1.2,0.,1.2,0.,1.2,,0.0,,0.0
1979-07-27 09:04:38.900 ,4,0,0.,1.2,0.,1.2,0.,1.2,,0.0,,0.0
1979-07-27 09:04:40.100 ,4,0,2.,1.2,0.,1.2,0.,1.2,,0.0,,0.0
1979-07-27 09:04:41.300 ,4,0,1.,1.2,1.,1.2,0.,1.2,,0.0,,0.0
1979-07-27 09:04:42.500 ,4,0,2.,1.2,0.,1.2,0.,1.2,,0.0,,0.0
1979-07-27 09:04:43.700 ,4,0,1.,1.2,0.,1.2,0.,1.2,,0.0,,0.0
1979-07-27 09:04:44.900 ,4,0,1.,1.2,0.,1.2,0.,1.2,,0.0,,0.0
1979-07-27 09:04:46.100 ,5,0,1.,1.2,0.,1.2,0.,1.2,,0.0,,0.0
1979-07-27 09:04:47.300 ,5,0,1.,1.2,0.,1.2,0.,1.2,,0.0,,0.0
1979-07-27 09:04:48.500 ,5,0,0.,1.2,0.,1.2,0.,1.2,,0.0,,0.0
1979-07-27 09:04:49.700 ,5,0,0.,1.2,0.,1.2,0.,1.2,,0.0,,0.0
1979-07-27 09:04:50.900 ,5,0,0.,1.2,0.,1.2,0.,1.2,,0.0,,0.0
1979-07-27 09:04:52.100 ,5,0,2.,1.2,0.,1.2,0.,1.2,,0.0,,0.0
1979-07-27 09:04:53.300 ,5,0,0.,1.2,0.,1.2,0.,1.2,,0.0,,0.0
1979-07-27 09:04:54.500 ,5,0,1.,1.2,1.,1.2,1.,1.2,,0.0,,0.0
1979-07-27 09:04:55.700 ,5,0,0.,1.2,0.,1.2,0.,1.2,,0.0,,0.0
1979-07-27 09:04:56.900 ,5,0,1.,1.2,0.,1.2,0.,1.2,,0.0,,0.0
1979-07-27 09:04:58.100 ,5,0,0.,1.2,0.,1.2,0.,1.2,,0.0,,0.0
1979-07-27 09:04:59.300 ,5,0,0.,1.2,0.,1.2,0.,1.2,,0.0,,0.0
1979-07-27 09:05:00.500 ,5,0,0.,1.2,0.,1.2,0.,1.2,,0.0,,0.0
1979-07-27 09:05:01.700 ,5,0,1.,1.2,0.,1.2,0.,1.2,,0.0,,0.0
1979-07-27 09:05:02.900 ,5,0,2.,1.2,0.,1.2,0.,1.2,,0.0,,0.0
1979-07-27 09:05:04.100 ,5,0,1.,1.2,1.,1.2,0.,1.2,,0.0,,0.0
1979-07-27 09:05:05.300 ,5,0,1.,1.2,0.,1.2,0.,1.2,,0.0,,0.0
1979-07-27 09:05:06.500 ,5,0,1.,1.2,0.,1.2,0.,1.2,,0.0,,0.0
1979-07-27 09:05:07.700 ,5,0,1.,1.2,0.,1.2,0.,1.2,,0.0,,0.0
1979-07-27 09:05:08.900 ,5,0,1.,1.2,0.,1.2,0.,1.2,,0.0,,0.0
1979-07-27 09:05:10.100 ,5,0,2.,1.2,0.,1.2,0.,1.2,,0.0,,0.0
1979-07-27 09:05:11.300 ,5,0,1.,1.2,0.,1.2,0.,1.2,,0.0,,0.0
1979-07-27 09:05:12.500 ,5,0,1.,1.2,0.,1.2,0.,1.2,,0.0,,0.0
1979-07-27 09:05:13.700 ,5,0,2.,1.2,0.,1.2,0.,1.2,,0.0,,0.0
1979-07-27 09:05:14.900 ,5,0,0.,1.2,0.,1.2,0.,1.2,,0.0,,0.0
1979-07-27 09:05:16.100 ,5,0,2.,1.2,1.,1.2,0.,1.2,,0.0,,0.0
1979-07-27 09:05:17.300 ,5,0,1.,1.2,0.,1.2,0.,1.2,,0.0,,0.0
1979-07-27 09:05:18.500 ,5,0,1.,1.2,0.,1.2,0.,1.2,,0.0,,0.0
1979-07-27 09:05:19.700 ,5,0,1.,1.2,0.,1.2,0.,1.2,,0.0,,0.0
1979-07-27 09:05:20.900 ,5,0,0.,1.2,0.,1.2,0.,1.2,,0.0,,0.0
1979-07-27 09:05:22.100 ,5,0,0.,1.2,0.,1.2,0.,1.2,,0.0,,0.0
1979-07-27 09:05:23.300 ,5,0,1.,1.2,0.,1.2,0.,1.2,,0.0,,0.0
1979-07-27 09:05:24.500 ,5,0,1.,1.2,0.,1.2,0.,1.2,,0.0,,0.0
1979-07-27 09:05:25.700 ,5,0,1.,1.2,0.,1.2,0.,1.2,,0.0,,0.0
1979-07-27 09:05:26.900 ,5,0,0.,1.2,0.,1.2,0.,1.2,,0.0,,0.0
1979-07-27 09:05:28.100 ,5,0,0.,1.2,0.,1.2,0.,1.2,,0.0,,0.0
1979-07-27 09:05:29.300 ,5,0,1.,1.2,1.,1.2,1.,1.2,,0.0,,0.0
1979-07-27 09:05:30.500 ,5,0,1.,1.2,1.,1.2,0.,1.2,,0.0,,0.0
1979-07-27 09:05:31.700 ,5,0,4.,1.2,1.,1.2,0.,1.2,,0.0,,0.0
1979-07-27 09:05:32.900 ,5,0,0.,1.2,0.,1.2,0.,1.2,,0.0,,0.0
1979-07-27 09:05:34.100 ,6,0,2.,1.2,0.,1.2,0.,1.2,,0.0,,0.0
1979-07-27 09:05:35.300 ,6,0,0.,1.2,0.,1.2,0.,1.2,,0.0,,0.0
1979-07-27 09:05:36.500 ,6,0,0.,1.2,0.,1.2,0.,1.2,,0.0,,0.0
1979-07-27 09:05:37.700 ,6,0,0.,1.2,0.,1.2,0.,1.2,,0.0,,0.0
1979-07-27 09:05:38.900 ,6,0,1.,1.2,0.,1.2,0.,1.2,,0.0,,0.0
1979-07-27 09:05:40.100 ,6,0,2.,1.2,0.,1.2,0.,1.2,,0.0,,0.0
1979-07-27 09:05:41.300 ,6,0,1.,1.2,1.,1.2,1.,1.2,,0.0,,0.0
1979-07-27 09:05:42.500 ,6,0,2.,1.2,0.,1.2,0.,1.2,,0.0,,0.0
1979-07-27 09:05:43.700 ,6,0,1.,1.2,0.,1.2,0.,1.2,,0.0,,0.0
1979-07-27 09:05:44.900 ,6,0,1.,1.2,1.,1.2,0.,1.2,,0.0,,0.0
1979-07-27 09:05:46.100 ,6,0,1.,1.2,0.,1.2,0.,1.2,,0.0,,0.0
1979-07-27 09:05:47.300 ,6,0,0.,1.2,0.,1.2,0.,1.2,,0.0,,0.0
1979-07-27 09:05:48.500 ,6,0,1.,1.2,0.,1.2,0.,1.2,,0.0,,0.0
1979-07-27 09:05:49.700 ,6,0,0.,1.2,0.,1.2,0.,1.2,,0.0,,0.0
1979-07-27 09:05:50.900 ,6,0,0.,1.2,0.,1.2,0.,1.2,,0.0,,0.0
1979-07-27 09:05:52.100 ,6,0,2.,1.2,0.,1.2,0.,1.2,,0.0,,0.0
1979-07-27 09:05:53.300 ,6,0,2.,1.2,0.,1.2,0.,1.2,,0.0,,0.0
1979-07-27 09:05:54.500 ,6,0,1.,1.2,0.,1.2,0.,1.2,,0.0,,0.0
1979-07-27 09:05:55.700 ,6,0,1.,1.2,0.,1.2,0.,1.2,,0.0,,0.0
1979-07-27 09:05:56.900 ,6,0,1.,1.2,0.,1.2,0.,1.2,,0.0,,0.0
1979-07-27 09:05:58.100 ,6,0,2.,1.2,0.,1.2,0.,1.2,,0.0,,0.0
1979-07-27 09:05:59.300 ,6,0,3.,1.2,1.,1.2,0.,1.2,,0.0,,0.0
1979-07-27 09:06:00.500 ,6,0,2.,1.2,0.,1.2,0.,1.2,,0.0,,0.0
1979-07-27 09:06:01.700 ,6,0,0.,1.2,0.,1.2,0.,1.2,,0.0,,0.0
1979-07-27 09:06:02.900 ,6,0,2.,1.2,0.,1.2,0.,1.2,,0.0,,0.0
1979-07-27 09:06:04.100 ,6,0,1.,1.2,0.,1.2,0.,1.2,,0.0,,0.0
1979-07-27 09:06:05.300 ,6,0,0.,1.2,0.,1.2,0.,1.2,,0.0,,0.0
1979-07-27 09:06:06.500 ,6,0,2.,1.2,0.,1.2,0.,1.2,,0.0,,0.0
1979-07-27 09:06:07.700 ,6,0,0.,1.2,0.,1.2,0.,1.2,,0.0,,0.0
1979-07-27 09:06:08.900 ,6,0,2.,1.2,0.,1.2,0.,1.2,,0.0,,0.0
1979-07-27 09:06:10.100 ,6,0,3.,1.2,0.,1.2,0.,1.2,,0.0,,0.0
1979-07-27 09:06:11.300 ,6,0,1.,1.2,0.,1.2,0.,1.2,,0.0,,0.0
1979-07-27 09:06:12.500 ,6,0,0.,1.2,0.,1.2,0.,1.2,,0.0,,0.0
1979-07-27 09:06:13.700 ,6,0,0.,1.2,0.,1.2,0.,1.2,,0.0,,0.0
1979-07-27 09:06:14.900 ,6,0,1.,1.2,0.,1.2,0.,1.2,,0.0,,0.0
1979-07-27 09:06:16.100 ,6,0,1.,1.2,0.,1.2,0.,1.2,,0.0,,0.0
1979-07-27 09:06:17.300 ,6,0,1.,1.2,0.,1.2,0.,1.2,,0.0,,0.0
1979-07-27 09:06:18.500 ,6,0,1.,1.2,0.,1.2,0.,1.2,,0.0,,0.0
1979-07-27 09:06:19.700 ,6,0,0.,1.2,0.,1.2,0.,1.2,,0.0,,0.0
1979-07-27 09:06:20.900 ,6,0,2.,1.2,0.,1.2,0.,1.2,,0.0,,0.0
1979-07-27 09:06:22.100 ,7,0,0.,1.2,0.,1.2,0.,1.2,,0.0,,0.0
1979-07-27 09:06:23.300 ,7,0,0.,1.2,0.,1.2,0.,1.2,,0.0,,0.0
1979-07-27 09:06:24.500 ,7,0,1.,1.2,0.,1.2,0.,1.2,,0.0,,0.0
1979-07-27 09:06:25.700 ,7,0,1.,1.2,0.,1.2,0.,1.2,,0.0,,0.0
1979-07-27 09:06:26.900 ,7,0,2.,1.2,0.,1.2,0.,1.2,,0.0,,0.0
1979-07-27 09:06:28.100 ,7,0,0.,1.2,0.,1.2,0.,1.2,,0.0,,0.0
1979-07-27 09:06:29.300 ,7,0,0.,1.2,0.,1.2,0.,1.2,,0.0,,0.0
1979-07-27 09:06:30.500 ,7,0,1.,1.2,1.,1.2,1.,1.2,,0.0,,0.0
1979-07-27 09:06:31.700 ,7,0,0.,1.2,0.,1.2,0.,1.2,,0.0,,0.0
1979-07-27 09:06:32.900 ,7,0,1.,1.2,0.,1.2,0.,1.2,,0.0,,0.0
1979-07-27 09:06:34.100 ,7,0,0.,1.2,0.,1.2,0.,1.2,,0.0,,0.0
1979-07-27 09:06:35.300 ,7,0,1.,1.2,0.,1.2,0.,1.2,,0.0,,0.0
1979-07-27 09:06:36.500 ,7,0,2.,1.2,0.,1.2,0.,1.2,,0.0,,0.0
1979-07-27 09:06:37.700 ,7,0,1.,1.2,0.,1.2,0.,1.2,,0.0,,0.0
1979-07-27 09:06:38.900 ,7,0,0.,1.2,0.,1.2,0.,1.2,,0.0,,0.0
1979-07-27 09:06:40.100 ,7,0,0.,1.2,0.,1.2,0.,1.2,,0.0,,0.0
1979-07-27 09:06:41.300 ,7,0,0.,1.2,0.,1.2,0.,1.2,,0.0,,0.0
1979-07-27 09:06:42.500 ,7,0,0.,1.2,0.,1.2,0.,1.2,,0.0,,0.0
1979-07-27 09:06:43.700 ,7,0,1.,1.2,0.,1.2,0.,1.2,,0.0,,0.0
1979-07-27 09:06:44.900 ,7,0,0.,1.2,0.,1.2,0.,1.2,,0.0,,0.0
1979-07-27 09:06:46.100 ,7,0,0.,1.2,0.,1.2,0.,1.2,,0.0,,0.0
1979-07-27 09:06:47.300 ,7,0,,0,,0,,0,,0,,0
1979-07-27 09:06:48.500 ,7,0,1.,1.2,0.,1.2,0.,1.2,,0.0,,0.0
1979-07-27 09:06:49.700 ,7,0,0.,1.2,0.,1.2,0.,1.2,,0.0,,0.0
1979-07-27 09:06:50.900 ,7,0,,0,,0,,0,,0,,0
1979-07-27 09:06:52.100 ,7,0,,0,,0,,0,,0,,0
1979-07-27 09:06:53.300 ,7,0,,0,,0,,0,,0,,0
1979-07-27 09:06:54.500 ,7,0,,0,,0,,0,,0,,0
1979-07-27 09:06:55.700 ,7,0,,0,,0,,0,,0,,0
1979-07-27 09:06:56.900 ,7,0,0.,1.2,0.,1.2,0.,1.2,,0.0,,0.0
1979-07-27 09:06:58.100 ,7,0,0.,1.2,0.,1.2,0.,1.2,,0.0,,0.0
1979-07-27 09:06:59.300 ,7,0,0.,1.2,0.,1.2,0.,1.2,,0.0,,0.0
1979-07-27 09:07:00.500 ,7,0,1.,1.2,1.,1.2,0.,1.2,,0.0,,0.0
1979-07-27 09:07:01.700 ,7,0,0.,1.2,0.,1.2,0.,1.2,,0.0,,0.0
1979-07-27 09:07:02.900 ,7,0,0.,1.2,0.,1.2,0.,1.2,,0.0,,0.0
1979-07-27 09:07:04.100 ,7,0,0.,1.2,0.,1.2,0.,1.2,,0.0,,0.0
1979-07-27 09:07:05.300 ,7,0,0.,1.2,0.,1.2,0.,1.2,,0.0,,0.0
1979-07-27 09:07:06.500 ,7,0,0.,1.2,0.,1.2,0.,1.2,,0.0,,0.0
1979-07-27 09:07:07.700 ,7,0,0.,1.2,0.,1.2,0.,1.2,,0.0,,0.0
1979-07-27 09:07:08.900 ,7,0,0.,1.2,0.,1.2,0.,1.2,,0.0,,0.0
1979-07-27 09:07:10.100 ,3,0,1.,1.2,0.,1.2,0.,1.2,,0.0,,0.0
1979-07-27 09:07:11.300 ,3,0,0.,1.2,0.,1.2,0.,1.2,,0.0,,0.0
1979-07-27 09:07:12.500 ,3,0,2.,1.2,0.,1.2,0.,1.2,,0.0,,0.0
1979-07-27 09:07:13.700 ,3,0,2.,1.2,0.,1.2,0.,1.2,,0.0,,0.0
1979-07-27 09:07:14.900 ,3,0,0.,1.2,0.,1.2,0.,1.2,,0.0,,0.0
1979-07-27 09:07:16.100 ,3,0,0.,1.2,0.,1.2,0.,1.2,,0.0,,0.0
1979-07-27 09:07:17.300 ,3,0,0.,1.2,0.,1.2,0.,1.2,,0.0,,0.0
1979-07-27 09:07:18.500 ,3,0,2.,1.2,1.,1.2,0.,1.2,,0.0,,0.0
1979-07-27 09:07:19.700 ,3,0,1.,1.2,1.,1.2,0.,1.2,,0.0,,0.0
1979-07-27 09:07:20.900 ,3,0,2.,1.2,0.,1.2,0.,1.2,,0.0,,0.0
1979-07-27 09:07:22.100 ,3,0,1.,1.2,0.,1.2,0.,1.2,,0.0,,0.0
1979-07-27 09:07:23.300 ,3,0,2.,1.2,0.,1.2,0.,1.2,,0.0,,0.0
1979-07-27 09:07:24.500 ,3,0,1.,1.2,0.,1.2,0.,1.2,,0.0,,0.0
1979-07-27 09:07:25.700 ,3,0,1.,1.2,1.,1.2,0.,1.2,,0.0,,0.0
1979-07-27 09:07:26.900 ,3,0,2.,1.2,0.,1.2,0.,1.2,,0.0,,0.0
1979-07-27 09:07:28.100 ,3,0,3.,1.2,0.,1.2,0.,1.2,,0.0,,0.0
1979-07-27 09:07:29.300 ,3,0,2.,1.2,1.,1.2,0.,1.2,,0.0,,0.0
1979-07-27 09:07:30.500 ,3,0,1.,1.2,0.,1.2,0.,1.2,,0.0,,0.0
1979-07-27 09:07:31.700 ,3,0,0.,1.2,0.,1.2,0.,1.2,,0.0,,0.0
1979-07-27 09:07:32.900 ,3,0,1.,1.2,1.,1.2,0.,1.2,,0.0,,0.0
1979-07-27 09:07:34.100 ,0,0,0.,1.2,0.,1.2,0.,1.2,,0.0,,0.0
1979-07-27 09:07:35.300 ,0,0,1.,1.2,0.,1.2,0.,1.2,,0.0,,0.0
1979-07-27 09:07:36.500 ,0,0,1.,1.2,0.,1.2,0.,1.2,,0.0,,0.0
1979-07-27 09:07:37.700 ,0,0,2.,1.2,1.,1.2,0.,1.2,,0.0,,0.0
1979-07-27 09:07:38.900 ,0,0,2.,1.2,0.,1.2,0.,1.2,,0.0,,0.0
1979-07-27 09:07:40.100 ,0,0,0.,1.2,0.,1.2,0.,1.2,,0.0,,0.0
1979-07-27 09:07:41.300 ,0,0,1.,1.2,1.,1.2,1.,1.2,,0.0,,0.0
1979-07-27 09:07:42.500 ,0,0,1.,1.2,0.,1.2,0.,1.2,,0.0,,0.0
1979-07-27 09:07:43.700 ,0,0,0.,1.2,0.,1.2,0.,1.2,,0.0,,0.0
1979-07-27 09:07:44.900 ,0,0,1.,1.2,0.,1.2,0.,1.2,,0.0,,0.0
1979-07-27 09:07:46.100 ,0,0,1.,1.2,0.,1.2,0.,1.2,,0.0,,0.0
1979-07-27 09:07:47.300 ,0,0,0.,1.2,0.,1.2,0.,1.2,,0.0,,0.0
1979-07-27 09:07:48.500 ,0,0,1.,1.2,0.,1.2,0.,1.2,,0.0,,0.0
1979-07-27 09:07:49.700 ,0,0,0.,1.2,0.,1.2,0.,1.2,,0.0,,0.0
1979-07-27 09:07:50.900 ,0,0,0.,1.2,0.,1.2,0.,1.2,,0.0,,0.0
1979-07-27 09:07:52.100 ,0,0,1.,1.2,0.,1.2,0.,1.2,,0.0,,0.0
1979-07-27 09:07:53.300 ,0,0,0.,1.2,0.,1.2,0.,1.2,,0.0,,0.0
1979-07-27 09:07:54.500 ,0,0,4.,1.2,1.,1.2,0.,1.2,,0.0,,0.0
1979-07-27 09:07:55.700 ,0,0,1.,1.2,0.,1.2,0.,1.2,,0.0,,0.0
1979-07-27 09:07:56.900 ,0,0,2.,1.2,0.,1.2,0.,1.2,,0.0,,0.0
1979-07-27 09:07:58.100 ,4,0,0.,1.2,0.,1.2,0.,1.2,,0.0,,0.0
1979-07-27 09:07:59.300 ,4,0,0.,1.2,0.,1.2,0.,1.2,,0.0,,0.0
1979-07-27 09:08:00.500 ,4,0,2.,1.2,1.,1.2,0.,1.2,,0.0,,0.0
1979-07-27 09:08:01.700 ,4,0,0.,1.2,0.,1.2,0.,1.2,,0.0,,0.0
1979-07-27 09:08:02.900 ,4,0,0.,1.2,0.,1.2,0.,1.2,,0.0,,0.0
1979-07-27 09:08:04.100 ,4,0,1.,1.2,0.,1.2,0.,1.2,,0.0,,0.0
1979-07-27 09:08:05.300 ,4,0,1.,1.2,0.,1.2,0.,1.2,,0.0,,0.0
1979-07-27 09:08:06.500 ,4,0,0.,1.2,0.,1.2,0.,1.2,,0.0,,0.0
1979-07-27 09:08:07.700 ,4,0,1.,1.2,0.,1.2,0.,1.2,,0.0,,0.0
1979-07-27 09:08:08.900 ,4,0,1.,1.2,0.,1.2,0.,1.2,,0.0,,0.0
1979-07-27 09:08:10.100 ,4,0,1.,1.2,0.,1.2,0.,1.2,,0.0,,0.0
1979-07-27 09:08:11.300 ,4,0,1.,1.2,0.,1.2,0.,1.2,,0.0,,0.0
1979-07-27 09:08:12.500 ,4,0,0.,1.2,0.,1.2,0.,1.2,,0.0,,0.0